EW6612 Weather Reports


time (UTC)temp
C
wind
direction
speed
KPH
gust
KPH
rain 1hr
cm
rain 24hr
cm
rain mn
cm
humidity
%
barometer
mb
20200216231700 15 199 3.2 11.3 0.00 0.03 0.03 83 1028.3
20200216230741 15 212 1.6 6.4 0.00 0.03 0.03 84 1028.2
20200216225724 15 212 1.6 11.3 0.00 0.03 0.03 84 1028.4
20200216224704 15 171 1.6 8.0 0.00 0.03 0.03 85 1028.3
20200216223647 15 171 1.6 6.4 0.00 0.03 0.03 85 1028.5
20200216222729 15 171 1.6 8.0 0.00 0.03 0.03 86 1028.4
20200216221705 14 170 3.2 8.0 0.00 0.03 0.03 86 1028.5
20200216220648 15 170 0.0 1.6 0.00 0.03 0.03 86 1028.6
20200216215626 15 170 0.0 3.2 0.00 0.03 0.03 86 1028.6
20200216214606 15 170 1.6 6.4 0.00 0.03 0.03 86 1028.5
20200216213648 15 170 1.6 9.7 0.00 0.03 0.03 86 1028.4
20200216212625 14 150 1.6 8.0 0.00 0.03 0.03 87 1028.3
20200216211606 14 144 0.0 3.2 0.00 0.03 0.03 87 1028.2
20200216210547 13 144 0.0 0.0 0.00 0.03 0.03 88 1028.1
20200216205528 13 144 0.0 0.0 0.00 0.03 0.03 88 1028.0
20200216204601 13 144 0.0 0.0 0.00 0.03 0.03 87 1027.9
20200216203536 13 144 0.0 0.0 0.00 0.03 0.03 86 1028.0
20200216202512 14 144 0.0 0.0 0.00 0.03 0.03 86 1028.2
20200216201456 14 144 0.0 0.0 0.00 0.03 0.03 85 1028.1
20200216200538 14 144 0.0 0.0 0.00 0.03 0.03 84 1028.1
20200216195517 15 144 0.0 0.0 0.00 0.03 0.03 83 1028.1
20200216194456 15 144 1.6 4.8 0.00 0.03 0.03 82 1028.1
20200216193438 15 143 3.2 6.4 0.00 0.03 0.03 81 1028.0
20200216192421 15 140 4.8 11.3 0.00 0.03 0.03 81 1028.0
20200216191505 15 174 3.2 11.3 0.00 0.03 0.03 81 1027.9
20200216190450 16 178 3.2 8.0 0.00 0.03 0.03 80 1028.0
20200216185434 16 178 3.2 8.0 0.00 0.03 0.03 80 1028.0
20200216184416 16 179 3.2 9.7 0.00 0.03 0.03 79 1027.9
20200216183454 16 144 3.2 9.7 0.00 0.03 0.03 79 1027.9
20200216182434 16 192 0.0 4.8 0.00 0.03 0.03 78 1027.9
20200216181420 16 167 1.6 6.4 0.00 0.03 0.03 78 1027.9
20200216180402 16 180 3.2 9.7 0.00 0.03 0.03 78 1027.8
20200216175345 16 232 4.8 12.9 0.00 0.03 0.03 78 1027.8
20200216174425 16 246 3.2 16.1 0.00 0.03 0.03 77 1027.8
20200216173409 16 215 3.2 14.5 0.00 0.03 0.03 77 1027.7
20200216172355 16 239 8.0 16.1 0.00 0.03 0.03 77 1027.6
20200216171340 16 213 8.0 17.7 0.00 0.03 0.03 78 1027.6
20200216170420 16 232 6.4 14.5 0.00 0.03 0.03 80 1027.6
20200216165409 16 215 11.3 25.7 0.00 0.03 0.03 79 1027.5
20200216164355 17 234 8.0 22.5 0.00 0.03 0.03 79 1027.6
20200216163339 17 206 9.7 16.1 0.00 0.03 0.03 78 1027.6
20200216162418 17 211 8.0 16.1 0.00 0.03 0.03 78 1027.5
20200216161401 17 189 4.8 11.3 0.00 0.03 0.03 78 1027.5
20200216160347 17 232 6.4 17.7 0.00 0.03 0.03 78 1027.5
20200216155326 17 257 8.0 17.7 0.00 0.03 0.03 77 1027.6
20200216154409 17 267 9.7 22.5 0.00 0.03 0.03 77 1027.5
20200216153351 17 238 8.0 19.3 0.00 0.03 0.03 77 1027.6
20200216152332 17 215 8.0 17.7 0.00 0.03 0.03 77 1027.6
20200216151314 17 213 11.3 24.1 0.00 0.03 0.03 77 1027.6
20200216150356 17 272 8.0 19.3 0.00 0.03 0.03 79 1027.6
20200216145340 17 219 4.8 16.1 0.00 0.03 0.03 82 1027.6
20200216144320 16 223 4.8 12.9 0.00 0.03 0.03 82 1027.7
20200216143406 16 222 6.4 12.9 0.00 0.03 0.03 82 1027.7
20200216142346 16 236 6.4 11.3 0.00 0.03 0.03 83 1027.7
20200216141328 16 220 8.0 17.7 0.00 0.03 0.03 82 1027.8
20200216140309 16 250 6.4 17.7 0.00 0.03 0.03 81 1027.9
20200216135350 17 226 4.8 16.1 0.00 0.03 0.03 81 1028.0
20200216134337 17 152 3.2 11.3 0.00 0.03 0.03 82 1028.0
20200216133317 16 216 4.8 16.1 0.00 0.03 0.03 81 1028.0
20200216132258 16 271 4.8 12.9 0.00 0.03 0.03 81 1028.1
20200216131339 16 257 4.8 11.3 0.00 0.03 0.03 82 1028.0
20200216130324 16 176 8.0 19.3 0.00 0.03 0.03 82 1028.2
20200216125305 16 183 8.0 27.4 0.00 0.03 0.03 81 1028.3
20200216124347 16 200 9.7 20.9 0.00 0.03 0.03 81 1028.3
20200216123329 16 211 6.4 14.5 0.00 0.03 0.03 82 1028.5
20200216122312 16 203 8.0 22.5 0.00 0.03 0.03 83 1028.6
20200216121258 16 149 9.7 19.3 0.00 0.03 0.03 83 1028.7
20200216120339 16 157 4.8 12.9 0.00 0.03 0.03 85 1028.8
20200216115322 16 167 8.0 17.7 0.00 0.03 0.03 86 1028.8
20200216114304 15 126 6.4 16.1 0.00 0.03 0.03 86 1028.9
20200216113342 15 208 6.4 19.3 0.00 0.03 0.03 87 1029.1
20200216112323 15 188 4.8 12.9 0.00 0.03 0.03 89 1029.2
20200216111307 15 146 6.4 12.9 0.00 0.03 0.03 90 1029.2
20200216110253 15 141 8.0 14.5 0.00 0.03 0.03 90 1029.1
20200216105332 14 138 8.0 14.5 0.00 0.03 0.03 91 1029.0
20200216104313 14 142 8.0 14.5 0.00 0.03 0.03 92 1029.0
20200216103255 14 143 6.4 12.9 0.00 0.03 0.03 93 1029.0
20200216102239 13 148 9.7 17.7 0.00 0.03 0.03 93 1028.9
20200216101323 13 142 4.8 14.5 0.00 0.03 0.03 93 1028.9
20200216100307 13 174 8.0 14.5 0.00 0.03 0.03 94 1028.8
20200216095250 13 136 11.3 19.3 0.00 0.03 0.03 94 1028.6
20200216094226 13 146 11.3 20.9 0.00 0.03 0.03 95 1028.5
20200216093308 13 146 11.3 17.7 0.00 0.03 0.03 95 1028.3
20200216092248 13 169 11.3 24.1 0.00 0.03 0.03 95 1028.3
20200216091230 13 132 9.7 16.1 0.00 0.03 0.03 96 1028.1
20200216090316 12 130 9.7 14.5 0.00 0.03 0.03 96 1027.9
20200216085256 12 170 6.4 16.1 0.00 0.03 0.03 96 1028.1
20200216084237 11 128 1.6 6.4 0.00 0.03 0.03 96 1028.1
20200216083224 11 215 0.0 0.0 0.00 0.03 0.03 96 1027.9
20200216082301 11 215 0.0 3.2 0.00 0.03 0.03 96 1027.9
20200216081241 11 215 0.0 0.0 0.00 0.03 0.03 96 1027.7
20200216080222 11 215 0.0 1.6 0.00 0.03 0.03 96 1027.6
20200216075205 10 215 0.0 0.0 0.00 0.03 0.03 95 1027.7
20200216074236 10 215 0.0 0.0 0.00 0.03 0.03 95 1027.5
20200216073218 11 215 0.0 0.0 0.00 0.03 0.03 96 1027.5
20200216072156 10 215 0.0 0.0 0.00 0.03 0.03 96 1027.3
20200216071136 10 215 0.0 0.0 0.00 0.03 0.03 96 1027.1
20200216070112 10 215 0.0 0.0 0.00 0.03 0.03 96 1027.0
20200216065149 10 215 0.0 0.0 0.00 0.03 0.03 96 1026.8
20200216064128 10 215 0.0 0.0 0.03 0.03 0.03 96 1026.8
20200216063112 10 215 0.0 0.0 0.03 0.03 0.03 96 1026.9
20200216062049 10 215 0.0 0.0 0.03 0.03 0.03 96 1027.1
20200216061128 9 215 0.0 0.0 0.03 0.03 0.03 96 1027.2
20200216060104 9 215 0.0 0.0 0.03 0.03 0.03 95 1027.2
20200216055045 9 215 0.0 0.0 0.03 0.03 0.03 96 1027.3
20200216054024 9 215 0.0 0.0 0.00 0.00 0.00 95 1027.2
20200216053000 8 215 0.0 0.0 0.00 0.00 0.00 95 1027.2
20200216052038 8 215 0.0 0.0 0.00 0.00 0.00 95 1027.3
20200216051014 8 215 0.0 0.0 0.00 0.00 0.00 96 1027.3
20200216045955 8 215 0.0 0.0 0.00 0.00 0.00 95 1027.4
20200216044931 8 215 0.0 0.0 0.00 0.00 0.00 95 1027.5
20200216044008 8 215 0.0 0.0 0.00 0.00 0.00 95 1027.4
20200216042949 8 215 0.0 0.0 0.00 0.00 0.00 96 1027.4
20200216041928 7 215 0.0 0.0 0.00 0.00 0.00 95 1027.5
20200216040903 7 215 0.0 0.0 0.00 0.00 0.00 95 1027.5
20200216035943 7 215 0.0 0.0 0.00 0.00 0.00 95 1027.4
20200216034920 7 215 0.0 0.0 0.00 0.00 0.00 95 1027.6
20200216033901 6 215 0.0 0.0 0.00 0.00 0.00 95 1027.6
20200216032844 7 215 0.0 0.0 0.00 0.00 0.00 95 1027.6
20200216031816 7 215 0.0 0.0 0.00 0.00 0.00 95 1027.7
20200216030807 7 215 0.0 0.0 0.00 0.03 0.00 95 1027.8
20200216025855 7 215 0.0 0.0 0.00 0.03 0.00 95 1027.9
20200216024836 7 215 0.0 0.0 0.00 0.03 0.00 95 1027.9
20200216023821 7 215 0.0 0.0 0.00 0.03 0.00 95 1028.1
20200216022731 7 215 0.0 0.0 0.00 0.03 0.00 95 1028.0
20200216021724 7 215 0.0 0.0 0.00 0.03 0.00 94 1028.1
20200216020741 7 215 0.0 0.0 0.00 0.03 0.00 94 1028.0
20200216015708 7 215 0.0 0.0 0.00 0.03 0.00 94 1028.0
20200216014653 7 215 0.0 0.0 0.00 0.03 0.00 94 1028.0
20200216013657 7 215 0.0 0.0 0.00 0.03 0.00 94 1028.0
20200216012648 7 215 0.0 0.0 0.00 0.03 0.00 94 1028.1
20200216011633 7 215 0.0 0.0 0.00 0.03 0.00 95 1028.0
20200216010629 7 215 0.0 0.0 0.00 0.03 0.00 94 1027.9
20200216005632 7 215 0.0 0.0 0.00 0.03 0.00 94 1028.0
20200216004613 8 215 0.0 0.0 0.00 0.03 0.00 94 1028.0
20200216003650 8 215 0.0 0.0 0.00 0.03 0.00 94 1027.8
20200216002558 8 215 0.0 0.0 0.00 0.03 0.00 94 1027.9
20200216001610 8 215 0.0 0.0 0.00 0.03 0.00 94 1028.0
20200216000554 8 215 0.0 0.0 0.00 0.03 0.00 94 1028.3
20200215235533 8 215 0.0 0.0 0.00 0.03 0.03 94 1028.3
20200215234612 8 215 0.0 0.0 0.00 0.03 0.03 94 1028.3
20200215233553 8 215 0.0 0.0 0.00 0.03 0.03 93 1028.3
20200215232538 8 215 0.0 0.0 0.00 0.03 0.03 94 1028.5